Location: Namasale
(1.5000°N, 32.6167°E)
Time: 19:39:09
(UTC+00:00)

Courier 1B - Pass Details

Date: 25 April 2021
Orbit: 962 x 1209 km, 28.3° (Epoch: 09 May)

Event Time Altitude Azimuth Distance (km) Brightness Sun altitude
Rises 13:03:41 0° 328° (NNW) 3,641 11.0 40.0°
Reaches altitude 10° 13:08:00 10° 354° (N) 2,680 10.2 39.0°
Maximum altitude 13:10:56 13° 22° (NNE) 2,448 9.7 38.3°
Drops below altitude 10° 13:13:51 10° 49° (NE) 2,687 9.6 37.6°
Sets 13:18:10 0° 75° (ENE) 3,658 10.1 36.6°
